Location: Bohy
(49.9380°N, 13.5753°E)
Time: 23:45:58
(UTC+00:00)

Cosmos 2360 Rocket - Pass Details

Date: 19 May 2025
Orbit: 834 x 842 km, 71.0° (Epoch: 22 June)

Event Time Altitude Azimuth Distance (km) Brightness Sun altitude
Rises 21:25:31 0° 333° (NNW) 3,394 7.2 -16.9°
Reaches altitude 10° 21:28:18 10° 345° (NNW) 2,457 5.9 -17.1°
Maximum altitude 21:33:10 29° 45° (NE) 1,492 3.7 -17.4°
Enters shadow 21:37:52 11° 104° (ESE) 2,400 4.2 -17.6°
